TUI3BH EDDL-GVBA

Flight info

Callsign TUI3BH
Flight time N/A
Altitude 32000
Route NETEX4Z/05R NETEX DCT RASCA DCT FAMEN/N0454F330 DCT ESTOC UT300 PON UN872 ERIGA DCT FUJTI DCT PEPET DCT BAKUP DCT BATAX DCT INBOM DCT CAS/N0458F350 DCT EKMAR DCT LUVUP DCT BEXAL DCT SAMAR DCT YUSME DCT LIMAL/N0463F360 N873 IPERA DCT DIMKI DIMKI1P
Aircraft B738/M-SDE2E3FGHIRWXY/LB1

Departure

Time 2026-05-05 13:48
Airport Düsseldorf Airport (EDDL)

Arrival

Time N/A
Airport Aristides Pereira International Airport (GVBA)
Time Latitude Longitude Altitude Speed Heading
2026-05-05 13:28 51.27620 6.75620 124 ft 0 kts 63°
2026-05-05 13:38 51.27614 6.75601 128 ft 4 kts 63°
2026-05-05 13:38 51.27604 6.75569 123 ft 4 kts 57°
2026-05-05 13:39 51.27588 6.75547 122 ft 4 kts 355°
2026-05-05 13:39 51.27565 6.75559 126 ft 4 kts 333°
2026-05-05 13:39 51.27552 6.75570 122 ft 1 kts 333°
2026-05-05 13:41 51.27574 6.75552 123 ft 6 kts 333°
2026-05-05 13:42 51.27622 6.75523 124 ft 8 kts 337°
2026-05-05 13:42 51.27669 6.75488 124 ft 7 kts 334°
2026-05-05 13:42 51.27713 6.75452 125 ft 7 kts 333°
2026-05-05 13:42 51.27757 6.75417 124 ft 7 kts 333°
2026-05-05 13:43 51.27809 6.75376 122 ft 9 kts 334°
2026-05-05 13:43 51.27868 6.75328 124 ft 9 kts 333°
2026-05-05 13:43 51.27886 6.75313 124 ft 0 kts 333°
2026-05-05 13:46 51.27887 6.75313 124 ft 0 kts 333°
2026-05-05 13:46 51.27923 6.75284 121 ft 13 kts 333°
2026-05-05 13:46 51.28007 6.75301 121 ft 13 kts 45°
2026-05-05 13:46 51.28019 6.75323 122 ft 0 kts 51°
2026-05-05 13:47 51.28025 6.75335 124 ft 8 kts 51°
2026-05-05 13:47 51.28195 6.75689 124 ft 77 kts 52°
2026-05-05 13:47 51.28662 6.76677 124 ft 143 kts 53°
2026-05-05 13:47 51.29367 6.78151 383 ft 178 kts 52°
2026-05-05 13:48 51.30065 6.79766 1385 ft 175 kts 53°
2026-05-05 13:48 51.30817 6.81363 2045 ft 190 kts 51°
2026-05-05 13:48 51.31676 6.83128 2247 ft 214 kts 51°
2026-05-05 13:48 51.32629 6.85076 2581 ft 228 kts 51°
2026-05-05 13:49 51.33620 6.87140 3012 ft 242 kts 53°
2026-05-05 13:49 51.34681 6.89407 3341 ft 263 kts 46°
2026-05-05 13:49 51.36246 6.90870 4042 ft 266 kts 12°
2026-05-05 13:49 51.38080 6.91356 4814 ft 269 kts
2026-05-05 13:50 51.39967 6.91807 5467 ft 276 kts
2026-05-05 13:50 51.41867 6.92283 6151 ft 282 kts
2026-05-05 13:50 51.43812 6.92789 6880 ft 284 kts
2026-05-05 13:50 51.45771 6.93308 7564 ft 289 kts
2026-05-05 13:51 51.47790 6.93452 8163 ft 296 kts 346°
2026-05-05 13:51 51.49627 6.92075 8902 ft 293 kts 317°
2026-05-05 13:51 51.50888 6.89547 9572 ft 293 kts 292°
2026-05-05 13:51 51.51654 6.86524 10230 ft 296 kts 288°
2026-05-05 13:52 51.52392 6.83327 10423 ft 317 kts 288°
2026-05-05 13:52 51.53184 6.79900 10610 ft 337 kts 288°
2026-05-05 13:52 51.53661 6.76136 10724 ft 353 kts 265°
2026-05-05 13:52 51.53035 6.72282 10870 ft 367 kts 239°
2026-05-05 13:53 51.51528 6.68903 11207 ft 376 kts 231°
2026-05-05 13:53 51.49926 6.65534 11714 ft 382 kts 231°
2026-05-05 13:53 51.48334 6.62097 12328 ft 386 kts 232°
2026-05-05 13:53 51.46743 6.58589 12907 ft 390 kts 233°
2026-05-05 13:54 51.45151 6.55035 13475 ft 395 kts 232°
2026-05-05 13:54 51.43418 6.51666 13992 ft 398 kts 230°
2026-05-05 13:54 51.41720 6.48075 14620 ft 400 kts 233°
2026-05-05 13:54 51.40129 6.44498 15210 ft 401 kts 233°
2026-05-05 13:55 51.38479 6.40893 15838 ft 400 kts 232°